QPF
0.00 0.00 0.00 0.00 0.00 0.00 0.00 0.00 0.00 0.00 0.00 0.00 0.00 0.00 0.00 0.00 0.00 0.00 0.00 0.00 0.00 0.00 0.00 0.00 0.00 0.00 0.00 0.00 0.00 0.00 0.00 0.00 0.00 0.00 0.00 0.00 0.00 0.00 0.00 0.00 0.00 0.00 0.00 0.00 0.00
0.00 0.00 0.00 0.00 0.00 0.00 0.00 0.00 0.00 0.00 0.00 0.00 0.00 0.00 0.00 0.00 0.00 0.00 0.00 0.00 0.00 0.00 0.00 0.00 0.00 0.00 0.00 0.00 0.00 0.00 0.00 0.00 0.00 0.00 0.00 0.00 0.00 0.00 0.00 0.00 0.00 0.00 0.00 0.00 0.00
0.00 0.00 0.00 0.00 0.00 0.00 0.00 0.00 0.00 0.00 0.00 0.00 0.00 0.00 0.00 0.00 0.00 0.00 0.00 0.00 0.00 0.00 0.00 0.00 0.00 0.00 0.00 0.00 0.00 0.00 0.00 0.00 0.00 0.00 0.00 0.00 0.00 0.00 0.00 0.00 0.00 0.00 0.00 0.00 0.00
0.00 0.00 0.00 0.00 0.00 0.00 0.00 0.00 0.00 0.00 0.00 0.00 0.00 0.00 0.00 0.00 0.00 0.00 0.00 0.00 0.00 0.00 0.00 0.00 0.00 0.00 0.00 0.00 0.00 0.00 0.00 0.00 0.00 0.00 0.00 0.00 0.00 0.00 0.00 0.00 0.00 0.00 0.00 0.00 0.00
0.01 0.01 0.01 0.00 0.00 0.00 0.00 0.00 0.00 0.00 0.00 0.00 0.00 0.00 0.00 0.00 0.00 0.00 0.00 0.00 0.00 0.00 0.00 0.00 0.00 0.00 0.00 0.00 0.00 0.00 0.00 0.00 0.00 0.00 0.00 0.00 0.00 0.00 0.00 0.00 0.00 0.00 0.00 0.00 0.00
0.01 0.01 0.00 0.00 0.00 0.00 0.00 0.00 0.00 0.00 0.00 0.00 0.00 0.00 0.00 0.00 0.00 0.00 0.00 0.00 0.00 0.00 0.00 0.00 0.00 0.00 0.00 0.00 0.00 0.00 0.00 0.00 0.00 0.00 0.00 0.00 0.00 0.00 0.00 0.00 0.00 0.00 0.00 0.00 0.00
0.02 0.01 0.00 0.00 0.00 0.00 0.00 0.00 0.00 0.00 0.00 0.00 0.00 0.00 0.00 0.00 0.00 0.00 0.00 0.00 0.00 0.00 0.00 0.00 0.00 0.00 0.00 0.00 0.00 0.00 0.00 0.00 0.00 0.00 0.00 0.00 0.00 0.00 0.00 0.00 0.00 0.00 0.00 0.00 0.00
0.06 0.03 0.00 0.00 0.00 0.00 0.00 0.00 0.00 0.00 0.00 0.00 0.00 0.00 0.00 0.00 0.00 0.00 0.00 0.00 0.00 0.00 0.00 0.00 0.00 0.00 0.00 0.00 0.00 0.00 0.00 0.00 0.00 0.00 0.00 0.00 0.00 0.00 0.00 0.00 0.00 0.00 0.00 0.00 0.00
0.08 0.05 0.02 0.01 0.00 0.00 0.00 0.00 0.00 0.00 0.00 0.00 0.00 0.00 0.00 0.00 0.00 0.00 0.00 0.00 0.00 0.00 0.00 0.00 0.00 0.00 0.00 0.00 0.00 0.00 0.00 0.00 0.00 0.00 0.00 0.00 0.00 0.00 0.00 0.00 0.00 0.00 0.00 0.00 0.00
0.02 0.01 0.01 0.00 0.00 0.00 0.00 0.00 0.00 0.00 0.00 0.00 0.00 0.00 0.00 0.00 0.00 0.00 0.00 0.00 0.00 0.00 0.00 0.00 0.00 0.00 0.00 0.00 0.00 0.00 0.00 0.00 0.00 0.00 0.00 0.00 0.00 0.00 0.00 0.00 0.00 0.00 0.00 0.00 0.00
0.01 0.01 0.01 0.00 0.00 0.00 0.00 0.00 0.00 0.00 0.00 0.00 0.00 0.00 0.00 0.00 0.00 0.00 0.00 0.00 0.00 0.00 0.00 0.00 0.00 0.00 0.00 0.00 0.00 0.00 0.00 0.00 0.00 0.00 0.00 0.00 0.00 0.00 0.00 0.00 0.00 0.00 0.00 0.00 0.00
0.00 0.00 0.00 0.00 0.00 0.00 0.00 0.00 0.00 0.00 0.00 0.00 0.00 0.00 0.00 0.00 0.00 0.00 0.00 0.00 0.00 0.00 0.00 0.00 0.00 0.00 0.00 0.00 0.00 0.00 0.00 0.00 0.00 0.00 0.00 0.00 0.00 0.00 0.00 0.00 0.00 0.00 0.00 0.00 0.00
0.02 0.01 0.00 0.00 0.00 0.00 0.00 0.00 0.00 0.00 0.00 0.00 0.00 0.00 0.00 0.00 0.00 0.00 0.00 0.00 0.00 0.00 0.00 0.00 0.00 0.00 0.00 0.00 0.00 0.00 0.00 0.00 0.00 0.00 0.00 0.00 0.00 0.00 0.00 0.00 0.00 0.00 0.00 0.00 0.00
0.03 0.02 0.01 0.01 0.00 0.00 0.00 0.00 0.00 0.00 0.01 0.00 0.00 0.00 0.00 0.00 0.00 0.00 0.00 0.00 0.00 0.00 0.00 0.00 0.00 0.00 0.00 0.00 0.00 0.00 0.00 0.00 0.00 0.00 0.00 0.00 0.00 0.00 0.00 0.00 0.00 0.00 0.00 0.00 0.00
0.07 0.02 0.01 0.00 0.00 0.00 0.00 0.00 0.00 0.00 0.09 0.00 0.00 0.00 0.00 0.00 0.00 0.00 0.00 0.00 0.00 0.00 0.00 0.00 0.00 0.00 0.00 0.00 0.00 0.00 0.00 0.00 0.00 0.00 0.00 0.00 0.00 0.00 0.00 0.00 0.00 0.00 0.00 0.00 0.00
0.07 0.03 0.02 0.00 0.00 0.00 0.00 0.00 0.01 0.06 0.06 0.00 0.00 0.00 0.00 0.00 0.00 0.00 0.00 0.00 0.00 0.00 0.00 0.00 0.00 0.00 0.00 0.00 0.00 0.00 0.00 0.00 0.00 0.00 0.00 0.00 0.00 0.00 0.00 0.00 0.00 0.00 0.00 0.00 0.00
0.11 0.05 0.01 0.00 0.00 0.01 0.02 0.03 0.04 0.06 0.01 0.00 0.00 0.00 0.00 0.00 0.00 0.00 0.00 0.00 0.00 0.00 0.00 0.00 0.00 0.00 0.00 0.00 0.00 0.00 0.00 0.00 0.00 0.00 0.00 0.00 0.00 0.00 0.00 0.00 0.00 0.00 0.00 0.00 0.00
0.19 0.16 0.05 0.00 0.00 0.03 0.09 0.07 0.04 0.01 0.00 0.00 0.00 0.00 0.00 0.00 0.00 0.00 0.00 0.00 0.00 0.00 0.00 0.00 0.00 0.00 0.00 0.00 0.00 0.00 0.00 0.00 0.00 0.00 0.00 0.00 0.00 0.00 0.00 0.00 0.00 0.00 0.00 0.00 0.00
0.32 0.32 0.13 0.03 0.00 0.04 0.10 0.17 0.02 0.00 0.00 0.00 0.00 0.00 0.00 0.00 0.00 0.00 0.00 0.00 0.00 0.00 0.00 0.00 0.00 0.00 0.00 0.00 0.00 0.00 0.00 0.00 0.00 0.00 0.00 0.00 0.00 0.00 0.00 0.00 0.00 0.00 0.00 0.00 0.00
0.31 0.47 0.32 0.02 0.02 0.06 0.18 0.16 0.00 0.00 0.00 0.00 0.00 0.00 0.00 0.00 0.00 0.00 0.00 0.00 0.00 0.00 0.00 0.00 0.00 0.00 0.00 0.00 0.00 0.00 0.00 0.00 0.00 0.00 0.00 0.00 0.00 0.00 0.00 0.00 0.00 0.00 0.00 0.00 0.00
0.30 0.61 0.39 0.03 0.07 0.12 0.25 0.12 0.00 0.00 0.00 0.00 0.00 0.00 0.00 0.00 0.00 0.00 0.00 0.00 0.00 0.00 0.00 0.00 0.00 0.00 0.00 0.00 0.00 0.00 0.00 0.00 0.00 0.00 0.00 0.00 0.00 0.00 0.00 0.00 0.00 0.00 0.00 0.00 0.00
0.32 0.49 0.19 0.10 0.32 0.28 0.10 0.01 0.00 0.00 0.00 0.00 0.00 0.00 0.00 0.00 0.00 0.00 0.00 0.00 0.00 0.00 0.00 0.00 0.00 0.00 0.00 0.00 0.00 0.00 0.00 0.00 0.00 0.00 0.00 0.00 0.00 0.00 0.00 0.00 0.00 0.00 0.00 0.00 0.00
0.21 0.34 0.17 0.20 0.56 0.25 0.01 0.00 0.00 0.00 0.01 0.02 0.00 0.00 0.00 0.00 0.00 0.00 0.01 0.02 0.00 0.00 0.00 0.00 0.00 0.00 0.00 0.00 0.00 0.00 0.00 0.00 0.00 0.01 0.00 0.01 0.00 0.00 0.00 0.00 0.00 0.00 0.00 0.00 0.00
0.12 0.22 0.37 0.48 0.40 0.10 0.00 0.00 0.00 0.00 0.00 0.01 0.00 0.00 0.00 0.00 0.00 0.00 0.02 0.02 0.00 0.00 0.00 0.00 0.00 0.00 0.00 0.00 0.00 0.02 0.01 0.00 0.01 0.03 0.03 0.01 0.01 0.00 0.00 0.01 0.00 0.00 0.00 0.00 0.00
0.16 0.18 0.28 0.50 0.39 0.09 0.00 0.00 0.00 0.00 0.00 0.01 0.04 0.01 0.00 0.00 0.00 0.00 0.01 0.01 0.00 0.00 0.00 0.00 0.00 0.00 0.00 0.00 0.01 0.02 0.02 0.01 0.02 0.03 0.04 0.01 0.02 0.00 0.00 0.02 0.01 0.00 0.00 0.00 0.00
0.14 0.11 0.14 0.21 0.14 0.03 0.01 0.00 0.00 0.00 0.00 0.00 0.01 0.00 0.00 0.02 0.01 0.01 0.01 0.01 0.01 0.00 0.00 0.00 0.00 0.00 0.00 0.00 0.00 0.04 0.03 0.00 0.00 0.00 0.00 0.00 0.00 0.00 0.00 0.00 0.00 0.00 0.00 0.00 0.00
0.09 0.08 0.08 0.12 0.08 0.10 0.04 0.01 0.00 0.00 0.00 0.00 0.00 0.00 0.00 0.01 0.01 0.01 0.02 0.02 0.01 0.01 0.01 0.01 0.00 0.01 0.02 0.00 0.01 0.02 0.00 0.00 0.00 0.00 0.00 0.00 0.00 0.00 0.00 0.00 0.00 0.00 0.02 0.00 0.00
MSLP
1018.06 1018.09 1018.21 1018.31 1018.38 1018.42 1018.51 1018.57 1018.47 1018.39 1018.28 1018.14 1017.79 1017.46 1016.94 1016.38 1015.53 1014.07 1012.86 1012.26 1012.01 1011.92 1011.88 1010.83 1009.76 1008.89 1008.01 1007.26 1006.48 1006.29 1005.90 1004.08 1002.95 1002.47 1003.79 1004.77 1004.73 1005.36 1006.00 1006.11 1006.42 1006.75 1007.46 1008.65 1008.92
1017.72 1017.89 1018.03 1018.30 1018.43 1018.48 1018.44 1018.59 1018.49 1018.43 1018.25 1018.12 1017.78 1017.48 1016.86 1016.45 1015.29 1012.94 1012.07 1011.97 1011.89 1011.89 1011.63 1009.93 1008.87 1008.15 1007.56 1006.67 1006.22 1006.11 1005.28 1004.29 1004.47 1004.06 1004.19 1005.25 1005.58 1005.63 1006.24 1006.17 1006.65 1007.07 1007.95 1008.79 1008.97
1017.56 1017.65 1017.79 1018.10 1018.22 1018.61 1018.58 1018.47 1018.40 1018.33 1018.33 1018.01 1017.74 1017.36 1016.89 1016.58 1014.30 1011.79 1012.19 1011.78 1012.02 1011.96 1011.38 1009.79 1008.90 1008.23 1007.25 1006.37 1006.04 1005.71 1005.24 1005.14 1005.26 1005.95 1005.65 1005.59 1006.03 1006.38 1006.74 1006.60 1006.95 1007.58 1008.33 1009.16 1009.52
1017.21 1017.49 1017.84 1017.88 1017.97 1018.33 1018.61 1018.55 1018.35 1018.26 1018.24 1017.95 1017.73 1017.31 1016.55 1016.19 1013.22 1011.41 1011.86 1011.78 1011.96 1011.80 1010.68 1009.32 1008.68 1007.89 1007.21 1006.06 1005.95 1005.81 1005.57 1005.35 1005.51 1006.31 1006.47 1006.46 1006.68 1006.73 1006.89 1006.99 1007.49 1008.36 1009.05 1009.68 1010.21
1016.88 1017.31 1017.78 1017.90 1018.02 1018.13 1018.46 1018.52 1018.32 1018.38 1018.16 1017.89 1017.58 1017.30 1016.34 1014.54 1011.80 1011.82 1011.89 1011.91 1011.49 1010.84 1010.01 1009.01 1008.41 1007.65 1006.94 1006.26 1005.64 1005.92 1005.96 1005.69 1006.33 1006.59 1006.99 1007.27 1007.35 1007.49 1007.39 1007.36 1008.26 1008.92 1009.57 1010.20 1011.40
1016.56 1017.22 1017.59 1017.81 1017.87 1018.06 1018.34 1018.35 1018.21 1018.35 1018.04 1017.92 1017.61 1017.40 1016.40 1013.83 1010.43 1010.73 1011.29 1010.93 1011.02 1010.29 1009.69 1009.39 1008.48 1007.83 1007.38 1006.71 1006.24 1006.05 1006.28 1006.04 1006.33 1006.61 1006.90 1007.34 1007.37 1007.49 1007.22 1007.62 1008.39 1009.06 1009.66 1011.23 1012.54
1016.66 1017.22 1017.79 1017.76 1018.06 1018.14 1018.33 1018.43 1018.24 1018.08 1017.89 1017.68 1017.51 1017.05 1015.33 1012.56 1010.51 1010.32 1011.08 1010.92 1010.58 1009.95 1009.68 1009.31 1009.02 1008.83 1007.83 1007.45 1007.07 1006.80 1006.86 1006.57 1006.33 1006.48 1006.82 1007.30 1007.47 1006.78 1007.08 1007.85 1008.40 1008.83 1009.67 1011.67 1013.08
1017.24 1017.83 1017.96 1017.74 1018.05 1018.29 1018.31 1018.39 1018.01 1017.88 1017.81 1017.63 1017.29 1016.72 1013.81 1010.91 1010.48 1010.28 1010.13 1010.68 1010.43 1010.47 1010.08 1009.70 1009.64 1009.48 1008.61 1007.77 1007.77 1007.38 1006.85 1005.94 1004.88 1005.54 1006.73 1007.56 1006.30 1005.01 1006.74 1007.83 1008.16 1008.56 1009.56 1011.71 1013.57
1017.01 1017.48 1017.76 1017.85 1018.07 1018.26 1018.44 1018.20 1017.69 1017.58 1017.63 1017.51 1017.02 1015.76 1012.34 1011.25 1010.44 1010.25 1010.21 1010.17 1010.33 1010.49 1010.30 1010.06 1010.18 1009.51 1008.62 1008.36 1007.58 1006.89 1005.82 1005.04 1004.62 1005.07 1005.95 1006.90 1006.09 1006.07 1006.74 1007.54 1008.08 1008.75 1009.84 1011.67 1013.56
1016.57 1017.06 1016.75 1017.44 1017.74 1018.05 1018.31 1018.12 1017.56 1017.32 1017.05 1016.48 1015.85 1014.91 1011.84 1010.11 1009.31 1009.69 1010.09 1010.06 1009.82 1010.29 1010.44 1010.35 1010.07 1009.01 1008.43 1007.68 1006.24 1005.31 1005.22 1004.67 1003.98 1004.63 1005.54 1005.98 1006.29 1006.03 1006.10 1006.55 1007.43 1008.78 1010.15 1011.93 1013.60
1016.73 1017.13 1017.04 1017.17 1017.28 1017.93 1018.46 1018.24 1017.73 1016.55 1015.64 1013.56 1012.48 1011.31 1009.62 1009.52 1010.15 1009.79 1009.76 1010.04 1009.93 1009.84 1009.73 1009.40 1009.09 1007.85 1007.18 1006.94 1006.12 1004.86 1004.59 1004.31 1003.80 1004.15 1005.30 1005.72 1006.02 1006.20 1006.27 1006.14 1007.21 1009.11 1010.40 1012.19 1013.94
1016.18 1016.80 1017.26 1017.56 1017.67 1017.78 1018.57 1017.08 1015.74 1015.63 1013.84 1012.48 1011.97 1010.84 1009.55 1009.73 1009.63 1009.15 1009.31 1009.87 1009.43 1008.90 1009.16 1008.65 1007.58 1006.91 1006.60 1006.07 1005.67 1005.35 1005.01 1004.85 1004.73 1004.58 1004.78 1005.37 1005.72 1005.96 1005.90 1005.98 1007.11 1008.80 1010.75 1012.51 1014.08
1016.04 1016.46 1017.11 1017.41 1017.92 1018.39 1017.82 1016.35 1015.55 1015.56 1014.18 1011.32 1010.09 1008.91 1008.94 1009.35 1008.79 1008.17 1008.77 1008.84 1008.50 1008.50 1007.80 1007.07 1006.05 1006.31 1006.06 1005.33 1005.42 1005.29 1005.10 1005.08 1005.05 1004.99 1005.25 1005.91 1005.74 1005.63 1005.48 1006.00 1007.74 1009.71 1011.03 1012.89 1014.29
1015.62 1016.51 1016.65 1017.87 1018.31 1017.53 1016.65 1015.99 1016.07 1015.76 1014.36 1009.44 1007.24 1006.24 1006.94 1008.27 1007.68 1008.11 1007.85 1008.27 1007.49 1007.19 1007.13 1006.19 1005.62 1005.15 1005.31 1005.24 1005.35 1005.36 1005.41 1005.40 1005.57 1006.08 1005.75 1005.87 1004.88 1004.41 1004.89 1006.12 1008.11 1009.91 1011.41 1013.05 1014.59
1015.31 1016.13 1016.73 1017.13 1015.99 1016.65 1015.63 1016.12 1016.17 1016.25 1013.19 1006.72 1005.95 1005.81 1005.76 1006.51 1006.08 1006.33 1006.95 1007.46 1006.62 1006.73 1006.59 1004.81 1004.71 1004.90 1005.02 1005.18 1005.30 1005.44 1005.67 1006.17 1006.24 1006.78 1006.73 1006.32 1005.73 1004.58 1004.45 1005.74 1007.65 1009.47 1011.22 1012.91 1014.45
1014.98 1015.67 1016.66 1017.34 1016.37 1015.42 1015.55 1016.04 1016.23 1015.60 1011.04 1006.17 1005.83 1006.20 1006.26 1006.27 1006.43 1005.99 1006.35 1006.74 1006.93 1006.80 1005.97 1005.18 1004.58 1004.48 1004.76 1005.15 1005.44 1005.96 1006.84 1007.34 1007.58 1007.66 1006.51 1006.57 1006.16 1003.87 1003.32 1003.50 1006.45 1008.56 1010.74 1013.04 1015.06
1014.66 1015.20 1016.11 1016.25 1015.60 1015.41 1015.95 1016.87 1016.36 1012.73 1008.57 1005.49 1004.81 1005.75 1005.77 1005.94 1006.50 1006.46 1005.97 1005.95 1006.25 1006.63 1005.48 1005.49 1004.59 1004.67 1005.06 1005.10 1005.42 1006.24 1007.48 1007.69 1007.81 1007.31 1005.76 1005.54 1004.78 1003.69 1003.65 1003.98 1005.34 1007.78 1010.55 1012.92 1014.96
1014.58 1014.74 1015.29 1015.68 1015.26 1015.56 1016.16 1016.53 1013.68 1008.74 1006.78 1004.51 1004.05 1004.82 1005.03 1004.87 1005.50 1005.89 1005.80 1005.46 1005.86 1005.95 1005.44 1005.10 1004.35 1004.38 1004.92 1005.02 1005.29 1006.15 1006.80 1006.26 1006.51 1006.40 1005.58 1004.68 1003.81 1003.86 1004.29 1005.25 1006.39 1007.90 1010.29 1012.78 1014.75
1014.91 1014.61 1014.66 1015.07 1015.32 1015.45 1015.82 1013.90 1011.18 1008.64 1006.28 1005.46 1004.30 1004.00 1004.11 1004.10 1003.93 1004.99 1005.13 1004.83 1005.01 1005.56 1005.34 1004.26 1003.38 1003.53 1003.87 1004.90 1005.31 1005.50 1005.91 1006.60 1006.64 1006.80 1006.71 1005.88 1004.84 1005.05 1005.70 1006.53 1007.61 1008.78 1010.54 1012.86 1014.76
1015.09 1015.22 1013.96 1014.49 1014.94 1015.27 1014.64 1012.77 1011.05 1008.68 1006.84 1005.52 1005.02 1004.24 1003.24 1003.28 1003.43 1003.68 1004.23 1003.88 1003.95 1004.14 1005.09 1004.41 1003.91 1003.27 1003.32 1004.46 1004.83 1004.83 1005.79 1006.63 1007.13 1007.28 1007.06 1005.81 1005.31 1004.83 1005.69 1007.00 1008.16 1009.43 1010.93 1012.79 1014.59
1015.34 1015.61 1014.65 1013.89 1014.49 1014.44 1012.43 1011.66 1010.39 1008.70 1007.51 1007.17 1005.94 1004.86 1004.11 1003.15 1002.93 1003.05 1003.13 1003.21 1003.00 1003.25 1004.37 1004.70 1004.51 1003.44 1003.64 1003.75 1004.23 1005.21 1005.35 1005.92 1007.11 1007.38 1007.03 1006.52 1005.69 1005.18 1005.85 1007.00 1007.97 1009.19 1010.66 1012.47 1014.16
1015.41 1015.22 1014.51 1014.20 1013.41 1012.50 1012.03 1010.62 1009.09 1008.71 1008.39 1008.38 1007.27 1006.10 1005.14 1004.01 1003.61 1003.35 1003.37 1003.26 1002.75 1002.77 1003.49 1004.23 1004.14 1003.69 1003.26 1004.14 1004.51 1004.48 1005.17 1005.96 1006.97 1007.43 1007.52 1007.11 1005.58 1005.62 1006.18 1006.96 1007.68 1008.56 1009.76 1011.94 1013.98
1015.01 1014.52 1013.85 1014.11 1011.81 1011.32 1010.91 1010.16 1009.94 1008.91 1008.07 1009.21 1008.41 1007.06 1005.94 1005.22 1004.86 1004.76 1004.69 1005.81 1004.99 1003.93 1003.95 1004.21 1004.35 1004.34 1004.09 1004.54 1004.42 1004.74 1005.23 1005.80 1006.95 1007.60 1007.50 1007.11 1004.76 1005.54 1005.30 1005.72 1006.78 1007.61 1008.73 1011.20 1013.18
1015.22 1013.93 1012.98 1012.59 1012.10 1011.07 1010.03 1009.61 1009.05 1008.58 1008.08 1009.06 1008.89 1008.15 1007.10 1006.84 1005.69 1005.86 1006.94 1007.59 1006.50 1006.76 1005.84 1005.18 1004.72 1004.91 1004.31 1004.37 1005.06 1005.39 1005.83 1006.49 1006.99 1007.86 1007.05 1006.41 1005.87 1005.65 1005.26 1006.21 1007.75 1008.40 1009.29 1011.27 1012.78
1014.90 1013.46 1011.90 1012.19 1011.54 1010.66 1009.62 1008.59 1008.17 1007.92 1007.81 1008.14 1008.99 1008.55 1008.07 1007.75 1007.33 1007.17 1008.02 1008.68 1007.90 1007.94 1007.22 1007.07 1006.32 1006.23 1006.04 1005.94 1005.94 1006.40 1006.90 1007.34 1007.78 1008.14 1007.45 1006.12 1006.05 1005.26 1005.33 1005.82 1007.16 1007.78 1008.67 1010.26 1012.21
1013.84 1013.23 1012.33 1011.14 1011.69 1010.26 1009.10 1007.85 1007.22 1007.02 1006.87 1007.42 1008.17 1008.02 1007.84 1008.08 1008.83 1008.87 1008.97 1009.40 1008.84 1008.65 1008.31 1008.15 1007.84 1007.83 1007.69 1007.24 1007.32 1007.01 1007.78 1007.48 1007.60 1007.14 1006.58 1006.16 1005.10 1005.07 1005.00 1004.88 1005.90 1006.58 1007.79 1009.64 1011.35
1013.24 1012.77 1012.54 1010.39 1010.05 1010.19 1008.13 1007.74 1006.74 1006.16 1005.82 1006.04 1006.92 1007.64 1007.91 1008.10 1009.17 1010.02 1010.69 1010.84 1010.54 1009.88 1009.01 1009.03 1009.32 1009.09 1008.50 1008.32 1007.92 1007.44 1006.66 1007.23 1006.23 1005.45 1004.95 1004.63 1004.19 1004.00 1004.04 1004.14 1004.24 1005.82 1007.30 1009.07 1010.75
Thickness
5656 5659 5659 5660 5661 5663 5664 5666 5669 5671 5673 5675 5679 5682 5688 5695 5702 5715 5722 5730 5733 5734 5734 5741 5747 5750 5758 5754 5763 5764 5733 5741 5762 5764 5745 5759 5752 5761 5761 5749 5752 5753 5744 5740 5746
5648 5649 5651 5650 5651 5653 5655 5656 5659 5661 5664 5666 5671 5673 5680 5685 5697 5713 5725 5724 5727 5726 5726 5736 5737 5745 5740 5748 5752 5741 5735 5741 5755 5757 5749 5749 5745 5746 5741 5743 5739 5742 5744 5742 5740
5638 5640 5642 5642 5643 5641 5644 5647 5650 5653 5654 5659 5663 5666 5671 5675 5695 5717 5715 5720 5717 5719 5722 5734 5737 5735 5731 5744 5743 5741 5728 5741 5745 5739 5745 5743 5740 5742 5729 5724 5732 5728 5727 5729 5728
5629 5629 5629 5631 5634 5633 5633 5636 5640 5643 5645 5649 5653 5658 5665 5669 5681 5714 5710 5711 5711 5712 5719 5725 5725 5721 5720 5728 5739 5724 5739 5740 5740 5738 5732 5728 5734 5728 5729 5727 5732 5728 5725 5716 5714
5620 5620 5619 5619 5622 5624 5623 5625 5630 5631 5635 5639 5644 5648 5659 5670 5686 5702 5700 5701 5705 5711 5711 5715 5713 5717 5713 5725 5733 5722 5726 5735 5730 5729 5723 5723 5717 5715 5717 5725 5725 5719 5714 5703 5700
5611 5609 5609 5610 5612 5613 5613 5616 5620 5620 5625 5628 5633 5637 5647 5653 5699 5699 5695 5701 5698 5704 5704 5706 5707 5716 5711 5715 5716 5723 5721 5723 5724 5720 5720 5710 5711 5712 5716 5718 5714 5709 5703 5687 5686
5597 5597 5595 5599 5599 5602 5602 5604 5608 5612 5616 5619 5623 5631 5643 5659 5689 5692 5688 5690 5695 5699 5694 5701 5704 5697 5706 5700 5715 5712 5699 5707 5712 5712 5706 5709 5693 5700 5710 5712 5705 5703 5696 5676 5676
5581 5578 5581 5585 5586 5587 5591 5592 5599 5603 5605 5609 5614 5621 5641 5673 5679 5683 5687 5681 5688 5688 5690 5695 5696 5688 5691 5704 5697 5688 5693 5685 5717 5708 5703 5693 5687 5717 5706 5700 5699 5701 5693 5669 5665
5570 5570 5571 5575 5575 5576 5577 5582 5590 5594 5596 5599 5607 5616 5639 5664 5667 5673 5677 5672 5675 5677 5681 5685 5679 5675 5683 5672 5673 5682 5677 5688 5698 5707 5693 5686 5690 5698 5697 5688 5688 5691 5683 5665 5655
5562 5560 5568 5566 5568 5568 5567 5572 5578 5584 5589 5594 5603 5606 5635 5653 5670 5667 5668 5668 5666 5662 5660 5661 5660 5660 5665 5667 5657 5679 5676 5688 5694 5692 5686 5677 5680 5697 5698 5688 5674 5679 5670 5657 5645
5546 5547 5551 5555 5558 5557 5555 5559 5568 5577 5584 5609 5617 5627 5643 5652 5655 5653 5660 5653 5655 5653 5643 5655 5643 5648 5666 5670 5678 5691 5681 5679 5698 5702 5675 5667 5675 5680 5689 5694 5670 5665 5658 5646 5634
5534 5535 5535 5536 5541 5544 5541 5554 5565 5569 5582 5605 5610 5619 5638 5638 5631 5645 5654 5636 5640 5639 5642 5642 5641 5666 5672 5674 5670 5672 5668 5668 5680 5691 5683 5667 5661 5672 5682 5682 5669 5662 5645 5635 5625
5518 5520 5521 5523 5523 5525 5530 5542 5554 5557 5562 5595 5614 5624 5629 5626 5628 5639 5643 5639 5636 5631 5640 5641 5661 5664 5661 5668 5657 5662 5660 5662 5662 5673 5672 5657 5652 5660 5673 5674 5660 5645 5639 5626 5616
5505 5503 5507 5504 5507 5510 5521 5530 5537 5542 5537 5592 5621 5633 5630 5623 5621 5637 5643 5633 5639 5635 5639 5646 5663 5660 5656 5652 5656 5643 5664 5659 5653 5645 5634 5661 5629 5664 5661 5654 5640 5632 5627 5617 5606
5495 5489 5489 5489 5506 5497 5508 5511 5518 5523 5526 5612 5616 5634 5634 5623 5636 5634 5636 5627 5629 5632 5635 5646 5650 5649 5639 5647 5656 5644 5654 5643 5644 5634 5631 5635 5627 5652 5665 5639 5632 5626 5621 5612 5601
5478 5475 5469 5470 5485 5490 5492 5493 5498 5494 5517 5593 5604 5602 5604 5614 5617 5624 5622 5628 5628 5620 5633 5638 5657 5650 5646 5646 5649 5648 5627 5627 5625 5618 5604 5623 5624 5646 5656 5659 5635 5629 5618 5601 5583
5462 5461 5455 5458 5474 5472 5468 5464 5463 5496 5567 5589 5597 5592 5592 5595 5595 5599 5606 5607 5604 5593 5606 5621 5633 5638 5639 5630 5639 5628 5607 5592 5589 5591 5606 5640 5632 5642 5654 5653 5643 5626 5610 5592 5575
5447 5448 5446 5450 5453 5457 5448 5438 5456 5553 5566 5601 5595 5583 5580 5595 5592 5590 5591 5597 5605 5604 5604 5596 5600 5621 5627 5623 5618 5614 5609 5605 5588 5597 5616 5644 5623 5631 5646 5640 5631 5619 5604 5584 5568
5432 5436 5437 5445 5441 5442 5431 5436 5478 5534 5565 5562 5572 5566 5574 5582 5592 5580 5581 5591 5601 5599 5587 5596 5605 5627 5626 5619 5619 5607 5595 5617 5600 5605 5588 5609 5630 5624 5622 5613 5607 5598 5587 5571 5558
5416 5414 5430 5434 5432 5428 5421 5435 5472 5523 5544 5541 5537 5558 5567 5570 5570 5573 5574 5594 5595 5604 5596 5596 5584 5615 5618 5613 5613 5608 5610 5580 5581 5567 5566 5601 5609 5609 5602 5595 5590 5581 5571 5560 5549
5394 5392 5414 5429 5423 5410 5425 5436 5470 5514 5518 5507 5517 5539 5554 5569 5571 5569 5574 5590 5598 5595 5591 5589 5578 5593 5597 5595 5591 5587 5585 5587 5580 5580 5570 5574 5590 5612 5597 5589 5581 5576 5568 5553 5540
5370 5378 5403 5410 5413 5408 5418 5458 5487 5487 5488 5484 5500 5513 5530 5554 5555 5560 5568 5580 5588 5590 5577 5583 5573 5571 5589 5593 5595 5594 5588 5583 5554 5563 5564 5566 5580 5602 5590 5586 5580 5574 5567 5551 5530
5358 5371 5390 5393 5412 5414 5441 5458 5460 5472 5483 5464 5479 5499 5519 5529 5533 5544 5553 5538 5554 5565 5565 5570 5553 5551 5564 5575 5583 5575 5582 5580 5570 5566 5555 5551 5582 5600 5599 5588 5579 5572 5565 5551 5528
5343 5368 5380 5388 5397 5410 5440 5450 5456 5471 5476 5464 5470 5480 5496 5503 5523 5530 5512 5516 5528 5526 5533 5546 5549 5547 5551 5567 5565 5555 5562 5565 5561 5539 5553 5557 5566 5579 5583 5569 5555 5553 5549 5534 5522
5332 5357 5385 5388 5385 5402 5436 5453 5455 5462 5471 5470 5448 5467 5480 5488 5501 5513 5502 5490 5506 5505 5518 5520 5522 5538 5544 5552 5550 5536 5536 5541 5534 5530 5529 5555 5550 5569 5570 5560 5552 5550 5544 5533 5518
5334 5351 5364 5390 5372 5397 5421 5443 5454 5463 5468 5464 5454 5471 5479 5476 5470 5474 5479 5469 5484 5496 5497 5501 5498 5506 5509 5525 5525 5521 5513 5528 5525 5533 5533 5539 5549 5565 5566 5569 5550 5547 5540 5528 5517
5328 5339 5341 5384 5389 5383 5412 5425 5448 5466 5471 5473 5468 5463 5462 5472 5465 5462 5454 5455 5467 5477 5486 5484 5483 5490 5491 5509 5508 5496 5520 5517 5533 5546 5547 5537 5553 5566 5560 5564 5564 5541 5540 5525 5513